Retour au catalogue

SL-16 DEB

ActifLEO
NORAD 22617·DEBRIS·🇷🇺 Russia

Lancé Mar 26, 1993 depuis Baikonur Cosmodrome

Loading…

Prochains Passages (prochaines 24 heures)

TLE

FraisSource: Space-Track

Époque: Sep 14, 2026, 10:13 UTC

1 22617U 93016AB  26257.42610103  .00000359  00000-0  29175-3 0  9990
2 22617  70.9967 282.2710 0132750  17.2757  46.2659 13.92543487692945

Suivez SL-16 DEB en temps réel avec AllMySat

Download on the App Store